Location: Marne
(34.0056°N, 117.9064°W)
Time: 03:33:32
(UTC+00:00)

STARLINK-1144 - Pass Details

Date: 18 January 2020
Orbit: 528 x 531 km, 53.0° (Epoch: 17 February)

Event Time Altitude Azimuth Distance (km) Brightness Sun altitude
Rises 01:29:06 0° 255° (WSW) 2,634 9.7 -5.0°
Reaches altitude 10° 01:31:37 10° 269° (W) 1,745 7.6 -5.5°
Maximum altitude 01:34:51 24° 324° (NW) 1,107 5.4 -6.1°
Drops below altitude 10° 01:38:06 10° 20° (NNE) 1,740 5.8 -6.8°
Enters shadow 01:39:49 - 31° (NNE) 2,332 6.4 -7.1°
